Wind_Speed
32 32 31 29 23 20 17 14 9 8 8 11 14 14 14 17 12 10 11 8 11 11 11 8 10 14 15 17 15 16 17 14 12 12 11 10 8 7 6 6 6 8 11 11 9 8 7 7 8
34 34 34 31 27 22 20 17 12 9 9 9 12 13 13 14 12 8 10 7 7 9 12 8 10 11 14 17 16 16 14 12 11 11 10 9 8 6 6 6 6 8 9 9 7 5 6 7 7
40 38 36 33 29 25 22 18 14 11 11 9 10 12 11 13 12 7 8 7 4 8 10 8 10 10 13 16 17 14 13 11 11 10 8 7 7 7 6 6 7 7 6 7 6 5 5 5 4
37 42 41 35 31 28 24 20 15 14 14 11 9 11 10 10 9 6 5 6 5 5 12 11 11 10 13 16 14 13 14 12 12 10 8 6 6 6 7 6 7 5 6 5 4 3 3 2 2
41 41 44 41 33 32 26 22 17 15 15 13 10 10 9 10 8 5 3 4 6 4 13 16 12 15 15 14 14 12 13 14 11 10 7 6 6 6 6 6 4 4 4 3 2 2 2 1 2
36 41 35 42 41 37 31 24 19 16 15 14 12 10 9 9 8 5 2 2 7 7 13 17 17 14 16 16 14 12 13 13 10 9 6 5 6 6 5 4 3 3 3 2 1 1 2 4 5
34 37 38 36 44 45 41 34 25 20 17 15 12 12 11 9 8 6 3 3 8 8 14 18 17 13 11 12 13 11 11 11 8 6 4 4 4 6 6 4 3 2 2 1 2 4 6 7 9
33 35 36 35 33 46 42 34 26 22 17 16 15 14 12 10 9 8 4 5 9 11 16 17 15 13 10 10 11 14 10 9 7 7 5 5 3 5 5 3 2 1 0 1 4 7 9 10 11
40 34 34 32 33 35 38 32 27 22 19 16 18 16 14 12 10 9 6 8 8 14 17 18 15 13 12 12 10 10 10 10 8 4 4 4 6 8 8 6 4 4 5 6 7 9 11 11 12
43 41 34 35 33 34 34 30 28 24 21 19 19 18 16 14 12 10 8 9 10 15 18 18 17 14 14 14 14 13 12 9 7 4 4 5 7 9 9 9 8 8 9 9 9 10 11 12 13
41 42 39 35 36 40 38 34 32 29 24 26 19 19 18 17 13 12 10 10 12 11 18 19 19 17 16 14 13 12 12 11 9 9 10 9 8 10 11 9 8 9 10 11 11 12 13 13 13
45 41 46 34 36 36 36 37 32 29 28 27 23 22 19 18 16 16 13 11 14 16 19 20 18 19 17 15 14 15 15 13 12 10 9 9 9 10 11 12 12 13 13 12 12 13 15 15 15
52 46 45 44 33 38 38 41 38 32 33 29 25 25 23 20 18 18 17 14 15 18 18 24 23 22 20 18 16 15 15 15 16 13 12 11 11 11 12 14 15 16 16 15 15 15 16 16 17
56 51 46 45 39 33 40 40 41 34 35 32 28 27 24 22 22 21 19 17 16 17 20 21 26 25 24 21 18 18 17 17 17 16 15 14 13 13 14 15 17 17 19 19 18 17 18 19 19
58 55 52 45 45 32 35 39 36 33 36 34 30 30 28 26 25 25 22 20 19 18 20 22 24 27 26 26 23 22 21 21 20 19 19 17 17 18 18 18 17 19 20 21 20 19 20 21 22
52 56 55 46 46 41 37 32 28 32 36 36 33 31 29 29 29 25 24 23 22 20 20 22 24 25 27 28 27 25 23 22 21 21 20 20 19 21 22 20 19 20 21 22 22 21 22 23 24
53 52 56 48 43 42 41 36 26 29 37 33 33 32 32 32 30 28 29 27 25 22 20 21 24 27 28 27 27 25 24 24 23 22 23 23 22 23 23 20 20 21 22 22 23 25 26 26 28
46 48 48 47 45 41 45 36 27 34 36 35 35 36 35 32 28 32 31 28 26 25 23 21 22 25 27 28 27 26 25 26 26 27 26 23 23 22 22 22 21 22 22 23 24 26 28 29 30
53 45 46 44 44 44 45 43 32 35 39 34 33 36 31 29 32 36 32 29 28 27 25 26 25 27 27 26 29 29 29 30 28 28 24 22 22 23 24 22 20 21 23 23 24 26 28 30 31
55 55 52 48 44 46 46 46 39 37 37 32 32 33 34 31 34 36 32 32 30 30 30 28 28 28 27 27 29 28 29 26 24 23 21 22 25 25 23 20 20 22 23 25 26 27 29 32 34
37 54 55 51 46 48 49 51 41 40 38 34 31 32 32 31 33 34 33 34 34 32 31 32 33 31 29 29 29 27 26 25 24 24 26 25 24 23 21 23 23 22 24 28 29 31 33 36 38
39 40 50 51 49 51 53 59 50 46 40 37 29 28 28 30 32 35 35 34 33 32 34 33 33 32 30 29 29 27 26 25 25 26 26 25 25 24 24 24 25 27 29 31 33 35 36 39 40
47 39 43 48 49 52 57 61 53 47 43 34 28 25 29 32 37 36 35 33 34 37 37 37 35 33 31 31 31 30 27 27 28 26 26 26 26 25 26 27 29 31 33 34 36 37 39 40 41
54 53 46 52 53 57 54 58 64 47 43 36 33 28 29 32 34 35 35 36 33 35 38 40 39 37 37 38 34 29 28 29 30 28 28 30 32 31 28 29 31 32 34 36 37 38 40 42 44
59 53 52 52 57 57 53 58 66 48 44 37 35 34 31 30 31 32 32 33 32 32 35 38 40 39 40 42 37 33 32 32 31 33 35 36 29 29 34 32 33 33 36 37 39 41 42 45 46
59 59 66 63 59 53 61 58 66 57 46 36 37 35 35 27 26 24 25 26 26 27 30 34 36 41 42 44 38 35 33 34 37 37 32 29 30 34 33 32 34 36 38 41 42 43 45 48 48
61 59 58 68 67 61 63 55 62 61 52 43 35 30 33 29 27 25 25 26 28 29 29 30 30 33 36 39 37 34 35 32 31 29 23 25 27 31 33 34 37 40 43 43 45 48 47 49 47
58 57 50 58 62 62 58 57 62 59 56 45 42 38 33 29 32 31 30 30 29 28 30 29 25 24 26 31 35 32 28 25 23 23 25 28 32 34 35 38 41 44 45 48 50 49 48 47 48
59 61 58 53 52 50 49 56 51 54 55 45 43 40 38 38 35 36 38 36 33 32 31 30 28 25 25 27 29 29 29 28 27 26 29 33 35 37 39 42 44 47 50 52 50 48 48 49 47
61 53 57 62 58 52 53 56 48 49 53 45 40 44 42 40 39 38 38 37 36 33 32 32 32 30 29 30 32 33 34 34 32 32 35 38 41 43 43 45 47 49 49 49 48 49 49 44 42
Wind_Direction
230 233 236 238 236 238 246 254 263 288 312 332 339 337 351 1 3 30 49 83 101 117 129 127 128 124 136 148 139 135 127 121 116 121 117 102 97 85 84 92 85 106 117 113 116 115 110 98 94
229 232 235 237 238 237 243 249 258 278 298 316 325 332 345 360 1 21 42 83 110 123 132 142 145 132 142 154 149 134 128 124 116 127 116 112 104 105 102 94 106 124 121 116 111 109 101 99 93
234 232 235 236 236 237 240 246 256 267 282 295 309 325 341 356 359 8 33 83 116 144 137 135 147 143 146 153 150 144 124 126 130 134 120 115 115 120 108 111 117 119 121 112 117 119 102 102 101
241 238 230 235 237 237 237 244 251 267 276 285 298 308 333 347 360 358 19 88 97 171 153 146 151 146 148 151 144 135 136 136 143 133 126 126 121 116 110 124 132 137 133 123 120 114 107 115 143
241 246 240 229 235 240 237 240 249 263 269 276 286 293 322 332 349 351 355 90 102 137 159 150 151 149 142 151 146 144 143 149 154 148 143 133 122 121 124 133 140 128 113 101 121 132 146 183 222
244 245 253 227 227 236 235 236 244 252 264 271 280 287 301 315 328 342 281 132 132 144 163 159 149 154 153 155 152 152 157 160 163 155 148 132 132 137 140 141 131 123 124 146 170 239 265 267 266
242 244 246 248 229 233 236 236 247 250 258 265 267 272 283 295 307 318 256 185 156 151 170 166 157 151 154 159 154 160 163 165 169 170 167 161 165 160 157 163 156 146 152 109 263 270 278 278 278
236 241 244 245 250 243 236 236 235 238 249 255 259 259 264 276 286 298 279 219 183 162 178 178 172 166 160 167 168 169 180 182 184 193 198 181 194 185 183 193 176 173 196 261 273 279 278 283 291
233 244 242 242 242 239 231 228 231 232 244 255 250 253 252 255 270 283 277 222 200 185 178 187 187 184 179 173 180 190 193 193 191 204 228 224 195 194 198 205 214 222 231 238 254 274 283 292 300
245 245 240 240 240 238 235 233 234 235 243 246 245 246 244 247 255 261 266 240 214 203 193 193 197 202 188 183 181 182 191 200 203 220 256 227 211 213 222 225 226 229 241 250 264 278 291 299 307
247 250 241 238 238 238 233 233 230 238 239 241 242 240 237 240 246 253 251 254 226 218 212 204 209 209 196 195 193 195 198 201 205 217 224 231 228 229 237 245 248 257 259 265 282 297 301 302 301
254 250 245 238 239 240 235 233 232 233 240 238 236 236 235 237 238 251 243 243 239 221 212 214 207 207 211 215 217 213 210 213 212 222 244 251 255 256 250 252 254 257 266 272 274 280 286 291 296
251 249 252 241 245 242 237 236 236 235 238 236 233 234 233 239 236 243 244 237 240 230 221 216 214 214 221 223 217 221 223 226 229 229 236 246 255 270 273 266 262 261 261 266 272 273 280 285 292
249 248 248 250 243 246 244 243 239 234 233 233 231 228 230 232 236 238 239 236 237 236 229 227 220 220 224 227 228 223 225 232 240 247 247 251 251 255 260 263 267 268 268 265 266 269 275 281 289
244 244 246 249 246 248 240 239 242 231 233 232 232 228 228 229 232 234 236 235 233 234 233 233 233 224 226 232 233 234 234 237 243 248 249 248 251 254 252 257 262 265 268 270 269 272 276 282 292
242 240 244 246 250 248 239 228 230 226 229 231 232 233 227 230 231 232 233 233 233 230 230 230 234 237 233 233 238 240 242 242 242 246 251 251 252 259 266 267 266 266 267 274 277 278 278 284 291
237 241 242 241 249 247 243 231 231 232 232 229 232 231 230 229 231 229 233 232 231 234 232 235 233 232 239 238 240 239 244 247 243 244 246 248 252 260 267 272 272 273 275 278 281 283 286 291 295
237 238 239 239 241 247 246 239 229 235 232 229 229 230 229 230 226 231 232 234 235 232 236 233 237 241 238 242 244 244 244 245 241 241 244 247 252 262 268 271 274 277 280 283 284 286 290 293 295
244 235 239 235 234 238 244 244 235 236 237 234 233 233 234 229 224 233 233 234 236 238 235 236 233 237 238 237 238 239 240 244 244 246 251 254 257 260 262 269 277 281 280 285 288 291 292 296 300
244 236 239 237 235 239 242 247 234 238 239 241 237 241 234 230 227 234 235 237 235 238 238 241 241 240 240 240 242 243 245 249 253 258 254 250 250 258 267 277 273 275 284 288 291 292 297 303 302
221 232 232 234 233 237 242 244 240 237 238 237 239 242 230 226 228 237 238 238 236 237 239 241 241 242 240 243 247 249 251 251 250 247 246 251 262 270 272 273 277 283 291 289 292 297 297 296 299
224 228 234 237 233 234 241 244 237 233 239 238 238 241 235 236 228 236 236 236 239 240 241 241 247 249 248 250 252 252 252 252 254 255 257 260 263 269 274 280 284 286 286 290 292 292 293 297 300
239 249 249 243 242 235 236 246 231 234 233 242 239 233 233 237 235 238 239 238 236 237 240 241 243 250 256 256 255 253 253 254 257 259 264 267 271 276 279 279 281 286 287 288 288 291 295 298 300
249 256 245 243 238 238 237 245 238 232 234 237 239 233 234 239 237 236 234 238 241 247 247 250 249 247 251 254 257 257 255 257 259 264 265 270 269 271 277 281 281 280 283 286 290 293 294 295 298
244 241 238 239 238 239 237 239 237 233 231 236 241 237 236 241 242 244 241 241 249 247 245 248 248 249 251 248 249 251 249 251 258 260 260 265 271 276 274 274 275 277 280 284 286 288 294 297 299
245 245 238 241 243 244 242 240 240 237 233 233 241 242 241 246 244 241 240 231 233 241 248 254 254 250 247 243 247 250 254 258 255 263 267 265 264 264 267 271 274 277 280 283 286 294 297 297 302
229 237 240 242 245 243 241 242 244 243 240 236 240 243 243 241 241 237 234 239 243 245 249 253 256 255 253 240 239 249 254 258 258 257 259 258 261 263 267 272 276 279 280 284 290 294 296 299 302
226 231 230 236 237 242 242 241 243 243 245 240 240 244 245 241 237 236 237 239 238 242 244 251 253 252 243 229 237 243 242 242 243 253 259 264 266 269 272 275 277 278 282 286 290 294 298 298 298
226 230 227 229 234 236 241 241 244 247 248 240 235 239 240 241 237 236 237 239 242 242 241 245 245 249 245 240 238 237 233 234 244 256 265 266 268 270 273 277 279 281 283 287 291 293 293 294 300
225 224 230 230 232 236 239 242 242 247 251 246 231 236 241 243 244 241 243 242 241 241 242 244 245 245 245 243 243 241 238 241 253 260 265 268 271 272 275 278 281 284 287 288 289 292 294 301 304
Height
5878 5881 5883 5886 5891 5891 5891 5893 5893 5893 5893 5892 5891 5889 5888 5886 5884 5884 5881 5880 5880 5880 5881 5882 5883 5884 5884 5886 5888 5890 5891 5893 5894 5895 5895 5895 5895 5896 5897 5898 5899 5899 5900 5901 5902 5902 5902 5902 5902
5874 5877 5880 5883 5887 5888 5889 5890 5892 5892 5892 5892 5891 5889 5888 5886 5884 5882 5882 5881 5882 5881 5881 5883 5883 5884 5884 5886 5889 5891 5893 5894 5894 5896 5896 5896 5896 5897 5898 5898 5899 5901 5901 5902 5903 5904 5904 5903 5902
5870 5873 5876 5879 5882 5885 5886 5888 5890 5890 5891 5891 5891 5890 5888 5886 5884 5883 5882 5882 5882 5882 5882 5884 5884 5885 5886 5887 5890 5892 5894 5895 5895 5897 5897 5897 5897 5897 5898 5899 5900 5901 5902 5903 5904 5904 5904 5904 5903
5864 5867 5871 5874 5879 5880 5883 5886 5887 5888 5889 5889 5890 5889 5889 5886 5884 5883 5883 5882 5882 5883 5882 5884 5886 5887 5888 5889 5891 5892 5894 5895 5897 5898 5898 5898 5898 5898 5899 5900 5901 5903 5903 5904 5905 5905 5905 5904 5903
5858 5862 5865 5870 5874 5877 5880 5882 5884 5885 5886 5887 5888 5888 5887 5886 5885 5883 5883 5882 5882 5883 5884 5883 5886 5887 5888 5890 5891 5893 5894 5896 5897 5898 5898 5899 5899 5900 5899 5900 5902 5903 5904 5904 5904 5905 5904 5903 5902
5853 5857 5860 5862 5868 5872 5875 5878 5881 5882 5884 5885 5886 5886 5886 5885 5884 5883 5883 5883 5881 5883 5885 5884 5885 5887 5888 5889 5891 5893 5895 5896 5897 5897 5898 5898 5899 5900 5901 5902 5903 5904 5904 5904 5905 5904 5903 5903 5902
5847 5851 5855 5859 5862 5867 5870 5873 5878 5879 5881 5883 5884 5884 5885 5884 5883 5882 5882 5883 5882 5883 5884 5886 5886 5888 5890 5890 5892 5893 5895 5896 5897 5898 5898 5898 5899 5899 5900 5901 5903 5904 5904 5904 5904 5904 5903 5902 5901
5843 5845 5848 5853 5855 5860 5865 5870 5872 5875 5878 5880 5881 5882 5883 5883 5882 5881 5881 5882 5882 5881 5885 5886 5887 5888 5890 5891 5892 5893 5894 5896 5897 5898 5898 5898 5899 5900 5901 5901 5902 5903 5903 5903 5903 5903 5902 5902 5901
5836 5840 5842 5847 5850 5855 5860 5864 5867 5871 5874 5877 5879 5879 5881 5881 5881 5880 5880 5881 5882 5882 5883 5885 5887 5888 5889 5889 5892 5894 5894 5895 5896 5897 5898 5898 5898 5898 5899 5900 5901 5901 5901 5901 5901 5901 5901 5901 5900
5830 5834 5838 5844 5845 5849 5854 5858 5863 5866 5869 5872 5874 5876 5878 5879 5879 5879 5879 5879 5879 5881 5882 5883 5885 5888 5888 5889 5890 5891 5893 5895 5895 5896 5896 5896 5897 5897 5898 5898 5899 5899 5899 5899 5899 5899 5899 5899 5898
5826 5831 5829 5835 5841 5844 5849 5853 5856 5860 5865 5866 5871 5873 5874 5876 5876 5877 5876 5877 5877 5879 5881 5881 5883 5886 5887 5888 5889 5890 5892 5893 5894 5893 5893 5894 5895 5896 5897 5898 5898 5899 5898 5898 5898 5898 5897 5896 5895
5819 5825 5825 5829 5833 5837 5843 5847 5849 5855 5858 5861 5866 5869 5870 5872 5873 5874 5874 5874 5875 5876 5878 5880 5881 5884 5886 5887 5888 5889 5889 5890 5891 5892 5893 5894 5894 5895 5895 5895 5895 5896 5896 5897 5896 5895 5894 5893 5892
5811 5819 5819 5824 5827 5832 5836 5839 5842 5850 5851 5855 5860 5864 5866 5868 5869 5871 5871 5872 5873 5874 5875 5877 5879 5880 5882 5884 5885 5886 5887 5888 5889 5890 5890 5891 5892 5892 5893 5893 5892 5892 5892 5893 5893 5892 5891 5890 5890
5801 5810 5814 5818 5823 5826 5829 5833 5836 5843 5845 5849 5854 5857 5861 5863 5865 5866 5867 5869 5870 5871 5872 5874 5876 5877 5879 5881 5883 5884 5885 5886 5887 5888 5888 5888 5888 5888 5888 5888 5889 5889 5889 5888 5888 5888 5888 5887 5886
5790 5798 5805 5811 5817 5820 5822 5827 5832 5837 5839 5844 5849 5851 5855 5858 5861 5861 5863 5864 5866 5867 5869 5871 5872 5874 5875 5877 5879 5881 5882 5882 5883 5883 5884 5884 5884 5883 5882 5883 5883 5884 5884 5884 5884 5884 5884 5884 5883
5780 5787 5797 5805 5810 5816 5816 5825 5828 5827 5830 5837 5842 5846 5849 5852 5854 5857 5858 5859 5861 5863 5864 5866 5869 5871 5871 5873 5875 5876 5878 5879 5879 5879 5880 5881 5880 5880 5880 5880 5880 5879 5880 5881 5881 5880 5880 5879 5878
5773 5781 5789 5797 5802 5808 5809 5819 5821 5822 5824 5829 5835 5838 5842 5845 5849 5852 5852 5854 5856 5859 5860 5862 5864 5865 5867 5869 5871 5872 5874 5875 5875 5875 5875 5876 5876 5876 5876 5877 5877 5876 5877 5877 5877 5877 5876 5875 5874
5769 5774 5782 5790 5796 5797 5801 5809 5814 5815 5817 5821 5824 5828 5833 5838 5844 5845 5847 5850 5853 5855 5856 5857 5859 5860 5861 5864 5866 5868 5869 5869 5870 5869 5869 5871 5871 5872 5872 5873 5873 5873 5873 5873 5872 5871 5871 5870 5868
5760 5763 5770 5779 5783 5786 5791 5797 5807 5808 5809 5814 5817 5823 5829 5834 5836 5836 5841 5844 5848 5851 5852 5853 5853 5854 5856 5857 5860 5861 5862 5862 5864 5864 5866 5868 5868 5867 5866 5868 5869 5869 5868 5867 5866 5865 5864 5863 5861
5750 5754 5762 5768 5774 5778 5782 5788 5799 5802 5804 5809 5813 5817 5822 5828 5828 5831 5836 5839 5842 5845 5846 5848 5849 5849 5851 5852 5853 5856 5856 5858 5859 5861 5862 5862 5862 5863 5863 5863 5863 5864 5863 5862 5860 5859 5858 5856 5854
5737 5744 5752 5759 5766 5769 5772 5776 5790 5796 5796 5802 5807 5812 5815 5820 5823 5826 5830 5833 5835 5838 5841 5841 5841 5844 5846 5847 5849 5851 5852 5854 5855 5854 5855 5856 5857 5859 5859 5859 5858 5858 5858 5855 5854 5853 5851 5848 5846
5733 5739 5744 5750 5755 5760 5762 5762 5779 5787 5790 5796 5803 5806 5812 5813 5816 5818 5821 5826 5830 5834 5833 5833 5836 5839 5842 5844 5845 5847 5848 5849 5849 5849 5850 5852 5852 5853 5854 5854 5853 5853 5852 5850 5847 5845 5844 5842 5839
5726 5732 5736 5741 5744 5750 5751 5751 5772 5779 5784 5793 5799 5801 5803 5804 5807 5809 5814 5818 5823 5824 5827 5827 5828 5833 5836 5839 5840 5840 5842 5843 5843 5845 5845 5846 5846 5847 5848 5847 5847 5846 5845 5843 5841 5838 5837 5835 5832
5718 5723 5728 5729 5735 5730 5748 5748 5754 5774 5781 5787 5791 5795 5797 5798 5800 5802 5805 5810 5816 5819 5822 5822 5823 5825 5827 5831 5834 5835 5836 5837 5837 5838 5839 5839 5839 5840 5840 5839 5839 5838 5837 5836 5834 5832 5829 5826 5823
5705 5715 5719 5718 5719 5727 5737 5735 5746 5766 5774 5782 5784 5787 5789 5791 5795 5798 5800 5804 5808 5810 5813 5815 5815 5816 5818 5822 5825 5827 5827 5828 5830 5830 5831 5832 5832 5832 5832 5831 5831 5830 5829 5828 5826 5824 5822 5818 5815
5702 5706 5708 5705 5711 5729 5719 5728 5739 5754 5767 5775 5778 5780 5782 5786 5789 5791 5794 5796 5799 5803 5806 5807 5807 5807 5808 5811 5816 5818 5818 5820 5822 5821 5821 5823 5824 5824 5823 5823 5822 5822 5821 5819 5817 5816 5813 5809 5806
5688 5685 5705 5698 5702 5709 5707 5729 5732 5741 5756 5767 5771 5772 5775 5778 5781 5783 5786 5790 5794 5796 5798 5799 5798 5799 5799 5802 5806 5809 5811 5812 5813 5814 5815 5816 5817 5817 5816 5815 5814 5813 5812 5811 5810 5807 5804 5801 5797
5673 5686 5685 5684 5689 5695 5705 5713 5721 5734 5744 5756 5763 5767 5769 5769 5772 5775 5778 5782 5785 5788 5789 5791 5791 5792 5793 5795 5798 5801 5804 5806 5806 5808 5809 5809 5809 5809 5808 5807 5805 5804 5803 5801 5799 5797 5795 5791 5787
5667 5668 5673 5680 5683 5688 5697 5699 5720 5724 5731 5745 5752 5755 5757 5759 5761 5766 5768 5771 5775 5778 5782 5784 5786 5786 5788 5790 5792 5794 5796 5797 5800 5801 5802 5802 5801 5801 5800 5799 5798 5796 5794 5792 5790 5787 5783 5780 5776
5652 5657 5661 5663 5674 5680 5684 5691 5708 5716 5722 5734 5739 5743 5748 5750 5753 5757 5760 5763 5767 5770 5774 5776 5778 5779 5781 5782 5784 5786 5787 5790 5791 5792 5792 5792 5792 5791 5791 5789 5788 5786 5784 5781 5778 5776 5772 5769 5765